IRIDIUM 33 DEB, 35806

Orbit data source: Space-Track

IRIDIUM 33 DEB, 35806 is space debris in LEO originally from a launch on Sun, 14 Sep 1997 UTC launched from the Tyuratam Missile And Space Complex (TTMTR). The debris from Iridium 33, an American commercial communications satellite, has been tracked extensively since its accidental collision with the defunct Russian satellite Cosmos 2251 in 2009. This event, occurring at high speed in low Earth orbit (LEO), generated thousands of pieces of space debris, significantly increasing the risk of further collisions. The Iridium 33 debris cloud has impacted space traffic management and orbital debris mitigation strategies, making it a subject of ongoing study in space situational awareness.

Loading next visibility...
Identifier
35806, 1997-051SQ
Orbit
LEO
Country
Flag of USUS
Related business
Manufacturer
Unknown
Mission
Spacecraft
Bus & Motor
Unknown
Mass
Unknown
Launch date (UTC)
1997-09-14 (28 years ago)
Launch vehicle
Unknown
Launch site
Tyuratam Missile And Space Complex (TTMTR)
Object type
Payload
Rocket body
Debris
Shape & HBR
Unknown shape, 0.1 m
Radar Cross Section
Small (<0.1 m²)

Expand to show TLE details & history
Last TLE update: 5 days ago

TLE from 5 days ago
0 IRIDIUM 33 DEB
1 35806U 97051SQ  26033.62383560  .00006817  00000-0  14766-2 0  9999
2 35806  86.3453 357.7727 0010810 255.6503 104.3507 14.58057158870804
Epoch: 2026-02-02T14:58Z
TLE epoch observation values (Epoch: 2026-02-02T14:58:19.395Z)
Latitude
0.00004°
Longitude
0.37543°
Altitude
704.443 km
Speed
7.503 km/s
True Right ascension
23h 51m 05s
True Declination
0° 00' 00"
Sunlit
Object was in daylight at epoch
Visualization orbit readout
Latitude
Unknown
Longitude
Unknown
Altitude
Unknown
Speed
Unknown
Apparent Right ascension
Unknown
Apparent Declination
Unknown
Sunlit
N/A
Visualization observer readout
Local Sidereal Time
15:41:45
Azimuth
Unknown
Elevation
Unknown
Doppler factor
Unknown
Orbital elements
Apogee altitude
704.034 km
Perigee altitude
688.739 km
Semi-major axis
7,074.523 km
Eccentricity
0.00108
Inclination
86.3453°
RAAN
357.7727°
Arg. of periapsis
255.6503°
True anomaly
104.47067°
Mean anomaly
104.3507°
Eccentric anomaly
104.41069°
Mean motion
3.64752 °/min
Orbital period
98.7 mins
BSTAR
0.0014766
Loading maneuver chart data...
Computing Atmospheric mass density...
Loading historical data...
Loading historical data...
Loading historical data...
Loading historical data...
Loading historical data...
Loading historical data...
Loading historical data...

Documentation

Showing up to 5 results
|